Time,TemperatureF,DewpointF,PressureIn,WindDirection,WindDirectionDegrees,WindSpeedMPH,WindSpeedGustMPH,Humidity,HourlyPrecipIn,Conditions,Clouds,dailyrainin,SoftwareType,DateUTC
2013-10-07 00:13:00,52.0,-99.9,30.09,South,174,2.0,2.0,-999,0.00,,,0.01,,2013-10-07 04:13:00,
2013-10-07 00:25:00,52.0,-99.9,30.09,SSE,163,0.0,0.0,-999,0.00,,,0.01,,2013-10-07 04:25:00,
2013-10-07 01:23:00,47.0,-99.9,30.09,SE,146,0.0,0.0,-999,0.00,,,0.01,,2013-10-07 05:23:00,
2013-10-07 01:43:00,47.0,-99.9,30.09,SE,146,0.0,0.0,-999,0.00,,,0.01,,2013-10-07 05:43:00,
2013-10-07 05:22:00,45.0,-99.9,30.11,WSW,245,0.0,0.0,-999,0.00,,,0.01,,2013-10-07 09:22:00,
2013-10-07 05:54:00,44.0,-99.9,30.11,SW,232,1.0,1.0,-999,0.00,,,0.01,,2013-10-07 09:54:00,
2013-10-07 06:23:00,42.0,-99.9,30.11,SW,226,0.0,0.0,-999,0.00,,,0.01,,2013-10-07 10:23:00,
2013-10-07 06:53:00,43.0,-99.9,30.11,South,179,0.0,0.0,-999,0.00,,,0.01,,2013-10-07 10:53:00,
2013-10-07 07:22:00,41.0,-99.9,30.11,SW,235,2.0,3.0,-999,0.00,,,0.01,,2013-10-07 11:22:00,
2013-10-07 07:42:00,40.0,-99.9,30.12,SW,232,2.0,2.0,-999,0.00,,,0.01,,2013-10-07 11:42:00,
2013-10-07 07:53:00,40.0,-99.9,30.12,SW,219,1.0,2.0,-999,0.00,,,0.01,,2013-10-07 11:53:00,
2013-10-07 08:22:00,41.0,-99.9,30.12,SW,221,2.0,3.0,-999,0.00,,,0.01,,2013-10-07 12:22:00,
2013-10-07 08:43:00,41.0,-99.9,30.12,SW,218,2.0,3.0,-999,0.00,,,0.01,,2013-10-07 12:43:00,
2013-10-07 08:52:00,41.0,-99.9,30.13,SW,222,4.0,4.0,-999,0.00,,,0.01,,2013-10-07 12:52:00,
2013-10-07 09:11:00,43.0,-99.9,30.13,SW,231,3.0,3.0,-999,0.00,,,0.01,,2013-10-07 13:11:00,
2013-10-07 09:22:00,51.0,-99.9,30.13,WSW,240,2.0,2.0,-999,0.00,,,0.01,,2013-10-07 13:22:00,
2013-10-07 14:22:00,83.0,-99.9,30.09,North,353,5.0,5.0,-999,0.00,,,0.01,,2013-10-07 18:22:00,
2013-10-07 14:52:00,82.0,-99.9,30.08,SE,141,0.0,0.0,-999,0.00,,,0.01,,2013-10-07 18:52:00,
2013-10-07 15:22:00,84.0,-99.9,30.07,WNW,301,0.0,7.0,-999,0.00,,,0.01,,2013-10-07 19:22:00,
2013-10-07 15:53:00,82.0,-99.9,30.04,North,11,0.0,7.0,-999,0.00,,,0.01,,2013-10-07 19:53:00,
2013-10-07 16:22:00,81.0,-99.9,30.03,SSW,197,3.0,0.0,-999,0.00,,,0.01,,2013-10-07 20:22:00,
2013-10-07 16:52:00,82.0,-99.9,30.02,NNE,23,0.0,0.0,-999,0.00,,,0.01,,2013-10-07 20:52:00,
2013-10-07 17:23:00,83.0,-99.9,30.01,West,260,3.0,3.0,-999,0.00,,,0.01,,2013-10-07 21:23:00,
2013-10-07 17:55:00,82.0,-99.9,30.01,SSW,200,1.0,0.0,-999,0.00,,,0.01,,2013-10-07 21:55:00,
2013-10-07 18:24:00,81.0,-99.9,29.99,NNE,17,5.0,5.0,-999,0.00,,,0.01,,2013-10-07 22:24:00,
2013-10-07 18:54:00,81.0,-99.9,29.99,NNE,18,3.0,4.0,-999,0.00,,,0.01,,2013-10-07 22:54:00,
2013-10-07 19:22:00,80.0,-99.9,29.99,NNE,21,3.0,5.0,-999,0.00,,,0.01,,2013-10-07 23:22:00,
2013-10-07 19:52:00,78.0,-99.9,29.99,NNE,27,0.0,0.0,-999,0.00,,,0.01,,2013-10-07 23:52:00,
2013-10-07 20:22:00,75.0,-99.9,29.99,NNE,27,0.0,0.0,-999,0.00,,,0.01,,2013-10-08 00:22:00,
2013-10-07 20:52:00,73.0,-99.9,29.99,NNE,27,0.0,0.0,-999,0.00,,,0.01,,2013-10-08 00:52:00,
2013-10-07 21:22:00,69.0,-99.9,30.00,ESE,111,3.0,3.0,-999,0.00,,,0.01,,2013-10-08 01:22:00,
2013-10-07 21:52:00,68.0,-99.9,30.01,SSE,165,4.0,4.0,-999,0.00,,,0.01,,2013-10-08 01:52:00,
2013-10-07 22:22:00,63.0,-99.9,30.01,SSE,149,3.0,4.0,-999,0.00,,,0.01,,2013-10-08 02:22:00,
2013-10-07 22:53:00,62.0,-99.9,30.02,SE,145,4.0,4.0,-999,0.00,,,0.01,,2013-10-08 02:53:00,
2013-10-07 23:22:00,61.0,-99.9,30.03,SSE,152,4.0,4.0,-999,0.00,,,0.00,,2013-10-08 03:22:00,
2013-10-07 23:55:00,57.0,-99.9,30.03,South,180,5.0,5.0,-999,0.00,,,0.00,,2013-10-08 03:55:00,